Location: ??
(35.3149°N, 139.6204°E)
Time: 10:27:50
(UTC+00:00)

Cosmos 1844 Rocket - Pass Details

Date: 03 August 2024
Orbit: 823 x 845 km, 71.0° (Epoch: 09 September)

Event Time Altitude Azimuth Distance (km) Brightness Sun altitude
Rises 16:19:08 0° 345° (NNW) 3,391 6.5 -33.1°
Reaches altitude 10° 16:21:41 10° 352° (N) 2,456 5.7 -32.9°
Maximum altitude 16:27:05 45° 64° (ENE) 1,133 3.5 -32.4°
Enters shadow 16:27:24 45° 74° (ENE) 1,140 3.5 -32.4°
